Torna al catalogo

DELTA 1 DEB

AttivoSSO
NORAD 12373·DEBRIS·🇺🇸 United States

Lanciato Mar 5, 1978 da Vandenberg Space Force Base

Loading…

Prossimi Passaggi (prossime 24 ore)

TLE

AggiornatoSource: Space-Track

Epoca: Sep 14, 2026, 09:31 UTC

1 12373U 78026EQ  26257.39690045  .00000385  00000-0  27647-3 0  9992
2 12373  99.2343 233.1637 0014083 336.6133 181.6144 14.03179085304419

Traccia DELTA 1 DEB in tempo reale con AllMySat

Download on the App Store